Probability
10 7 4 6 10 13 17 18 16 14 15 17 18 18 20 23 24 26 29 27 18 14 15 14 13 14 14 12 12 14 13 12 11 9 9 10 11 11 9 7 8 9 11
14 10 5 4 7 11 14 18 19 17 15 17 19 18 20 24 25 26 28 26 19 15 14 14 12 11 12 12 13 14 13 11 9 7 7 10 11 10 7 6 8 10 10
17 13 7 5 7 9 12 17 22 21 18 16 15 14 17 23 25 24 24 22 18 15 15 15 12 10 10 12 12 13 13 12 9 7 7 9 11 9 6 5 6 9 10
13 13 11 9 10 11 14 19 25 26 23 17 13 11 14 18 21 20 19 18 16 15 17 17 15 13 12 12 11 12 13 13 11 9 8 8 9 9 7 4 4 8 10
12 13 13 11 10 12 14 20 28 30 27 21 16 14 12 12 13 13 14 16 16 16 18 18 17 16 16 15 14 13 13 13 11 9 7 7 9 9 7 5 6 8 10
13 14 15 14 12 13 15 21 29 32 28 22 19 17 14 11 11 13 15 18 18 19 19 19 18 19 20 21 20 19 16 13 12 10 8 9 10 8 7 7 8 10 12
15 16 19 19 18 17 18 22 29 31 27 23 20 19 19 16 16 19 20 20 21 21 21 21 21 21 21 23 24 24 22 17 15 13 13 13 11 9 8 8 9 11 13
17 17 19 22 21 20 20 24 29 30 26 23 21 21 22 19 18 21 22 22 22 21 22 24 23 21 20 22 24 25 24 21 17 15 16 15 12 9 8 9 10 10 10
16 16 17 20 21 21 21 25 31 31 26 23 21 22 21 18 16 20 23 23 22 20 21 23 22 19 18 20 23 24 24 23 20 18 17 16 13 10 10 13 15 11 7
13 13 15 18 21 22 24 27 32 33 29 25 23 21 21 18 17 20 23 24 22 21 20 20 20 18 17 19 22 23 24 24 22 20 19 18 16 14 14 17 20 17 12
11 12 15 19 22 24 26 29 32 33 30 26 22 20 20 19 19 20 21 23 24 23 22 20 19 17 18 20 21 22 22 22 20 18 17 17 17 16 15 18 22 21 19
12 14 17 21 24 26 26 29 30 28 25 23 21 20 19 19 19 19 19 20 23 24 23 22 20 18 17 19 20 21 20 18 16 15 15 15 15 15 15 16 19 19 18
15 16 18 21 25 26 26 26 25 20 18 19 20 21 20 18 18 17 18 19 21 22 23 23 21 17 16 17 18 19 18 18 17 15 15 14 13 15 15 15 15 16 14
19 19 20 22 26 28 27 26 22 16 15 17 19 20 21 20 19 17 18 19 20 21 22 22 20 18 16 14 14 15 14 14 16 16 16 14 13 14 15 14 14 14 12
21 21 24 27 29 30 32 30 24 17 16 17 18 20 22 22 20 20 19 19 20 22 23 23 22 19 16 13 11 11 9 9 12 14 14 12 11 11 12 12 13 13 12
20 23 30 35 34 34 36 34 28 23 21 21 21 23 24 22 21 21 21 21 23 25 25 25 23 20 16 12 9 8 8 8 9 10 9 8 7 8 10 10 10 10 9
20 23 32 38 38 36 37 36 31 27 26 27 26 26 25 24 23 23 24 25 26 27 27 26 24 20 15 10 7 6 7 8 8 9 8 6 5 7 9 9 8 7 6
23 23 28 34 35 33 34 34 31 27 27 29 29 27 25 25 25 26 27 28 29 28 27 27 25 21 14 8 5 6 7 8 8 10 11 10 8 8 9 10 9 8 8
25 23 23 27 30 30 30 29 26 24 25 27 28 27 25 26 27 28 29 30 31 29 27 26 27 25 18 8 4 6 9 10 11 12 13 13 11 8 8 10 13 13 14
25 23 20 23 28 30 30 26 22 20 22 25 27 28 29 30 30 30 31 31 32 30 27 26 28 29 24 12 4 5 10 14 13 13 13 11 9 7 6 9 13 16 16
24 23 22 25 29 31 30 26 21 20 22 25 27 30 32 30 29 31 34 35 34 31 30 28 30 32 28 16 6 4 9 14 14 13 13 11 7 3 3 6 10 12 12
23 24 25 28 30 30 29 27 24 21 23 27 31 32 33 29 26 30 35 36 34 30 28 28 30 32 30 21 10 5 6 10 12 13 14 10 4 1 1 3 5 6 5
24 24 23 26 29 30 30 30 27 25 26 31 34 35 35 31 27 28 32 32 30 26 25 25 28 31 30 24 15 7 4 5 7 10 9 5 2 0 1 2 2 3 4
24 22 20 22 27 30 31 31 31 30 30 33 35 34 34 31 28 28 29 27 25 24 24 25 27 28 27 23 18 13 9 7 7 8 8 6 4 4 4 6 7 8 8
20 20 20 22 25 26 26 27 30 33 34 33 31 28 27 26 25 25 25 23 21 19 21 23 24 24 21 17 15 15 13 11 10 11 12 12 12 11 10 12 15 16 14
17 18 21 23 24 23 21 23 27 32 34 31 26 23 22 22 20 20 22 20 16 14 15 19 21 21 18 13 11 11 11 11 11 12 15 17 17 17 15 16 19 20 19
Wind_Speed
8 7 6 6 6 6 5 3 2 2 1 1 0 0 1 1 1 1 2 1 0 1 0 1 0 1 1 0 1 1 1 1 1 1 0 1 2 3 3 2 3 3 3
9 6 6 6 6 6 5 4 3 2 1 1 1 1 0 0 1 1 2 1 0 1 0 0 1 1 1 1 1 1 1 1 1 1 1 1 1 1 3 3 3 3 3
9 8 6 5 6 6 5 4 3 2 1 0 0 1 1 0 0 0 1 1 1 0 1 0 1 1 1 1 1 1 1 1 1 1 1 1 1 1 1 2 2 3 2
9 9 8 6 5 6 6 5 4 2 2 1 1 1 0 0 1 0 1 1 1 0 1 1 1 1 1 1 1 0 1 1 1 1 1 1 1 1 1 1 1 2 3
9 8 8 6 6 6 6 5 4 3 2 1 1 2 2 1 1 1 1 1 0 0 1 1 1 1 1 1 1 1 1 1 1 1 1 1 0 1 1 1 2 2 2
9 8 8 7 6 6 6 6 5 3 2 1 1 1 2 2 3 2 2 1 1 1 1 1 1 1 1 1 1 1 2 2 2 2 2 1 1 1 1 1 2 2 2
8 8 8 7 6 5 5 6 6 3 2 1 1 1 2 2 2 2 2 1 1 1 1 1 1 1 1 1 1 2 2 2 2 3 2 2 1 1 1 0 1 1 1
8 8 8 7 5 5 5 6 6 4 2 2 1 1 1 1 2 2 2 2 2 2 2 1 1 2 2 2 1 2 2 1 2 3 2 2 2 1 1 1 0 1 1
7 7 7 7 6 6 5 6 6 4 2 2 1 1 1 1 2 2 1 2 2 2 2 2 2 2 2 2 1 2 1 1 2 3 3 3 2 2 2 1 1 1 1
6 6 5 6 7 6 6 6 6 4 3 2 1 1 1 1 1 2 2 2 2 2 2 2 2 3 2 2 2 2 1 1 2 1 1 2 2 2 2 1 1 1 1
6 7 6 6 6 7 6 5 5 4 3 2 2 1 1 1 1 1 1 2 2 2 2 2 2 2 2 2 2 2 1 2 2 2 2 2 2 2 2 1 1 1 1
5 6 6 6 5 6 6 5 5 4 4 3 2 1 0 1 1 1 2 2 2 2 2 2 2 3 2 2 2 3 2 2 2 2 2 2 2 2 2 2 2 1 1
5 5 5 5 4 4 3 4 3 3 3 3 2 1 0 1 1 2 2 2 2 2 2 2 2 3 2 2 2 2 3 2 2 2 3 3 2 2 2 2 2 1 1
4 4 5 5 4 3 3 3 2 2 2 2 2 1 1 1 1 2 2 2 2 2 2 2 2 3 2 2 2 2 3 3 3 3 2 2 2 3 3 3 2 2 2
4 4 3 4 4 3 3 2 1 1 1 1 1 1 1 1 1 2 2 2 3 3 2 3 3 3 2 2 2 3 3 3 4 3 3 3 3 3 3 3 2 2 2
3 3 3 4 3 3 2 2 1 1 1 1 0 0 0 0 1 2 2 2 2 3 3 3 3 4 3 2 3 3 4 4 4 4 3 4 4 3 5 5 4 4 4
2 2 2 2 2 3 2 2 1 2 2 1 1 1 1 1 1 2 2 2 3 3 3 3 3 3 2 3 2 4 5 5 4 4 4 5 4 3 3 5 6 6 7
2 2 2 2 2 2 2 2 1 2 2 1 1 2 2 2 2 2 2 2 3 3 3 4 4 3 3 2 3 5 5 5 5 5 5 5 4 4 3 4 4 5 5
3 2 3 3 3 3 3 3 3 2 2 2 2 2 2 3 3 3 3 2 3 4 4 4 3 3 3 3 3 4 4 4 5 5 5 5 3 4 4 4 5 5 5
4 3 3 4 4 4 3 2 2 2 2 2 2 2 2 3 3 2 3 3 3 4 4 4 3 4 3 3 4 4 3 4 4 4 4 4 4 4 4 4 5 6 5
4 4 4 4 4 4 4 3 3 3 3 4 3 2 2 3 2 2 2 3 4 4 4 4 4 3 3 3 4 4 3 4 4 4 4 3 3 4 6 6 6 7 6
4 4 3 4 4 4 3 3 3 4 4 4 3 2 2 4 3 2 3 3 4 4 4 4 4 3 2 2 3 5 6 5 4 4 4 2 2 4 5 6 7 7 5
3 3 3 3 3 3 2 2 2 3 3 4 4 3 3 3 2 3 3 3 3 4 4 3 4 3 2 1 3 5 6 6 4 4 5 5 5 5 5 7 8 6 4
2 2 2 3 3 3 2 2 2 3 3 3 4 3 3 3 2 2 2 2 3 3 4 3 4 3 2 2 2 2 3 5 5 5 6 7 7 6 7 5 4 4 4
2 2 2 2 2 2 2 2 2 2 3 4 4 4 3 3 2 2 1 2 1 2 3 3 4 4 3 3 3 3 3 4 4 5 4 4 3 3 4 4 4 4 4
2 1 1 1 1 1 2 2 2 3 3 4 4 4 3 3 2 2 1 2 1 1 1 2 3 3 3 5 5 6 6 5 4 3 4 4 4 3 3 3 3 3 3
Wind_Direction
140 142 145 137 130 127 126 116 98 92 77 50 17 179 159 189 145 132 103 106 76 36 12 331 322 299 291 311 325 350 286 260 213 228 223 192 196 169 172 181 171 185 177
144 147 155 150 143 137 133 127 117 89 80 113 231 244 228 203 137 87 117 130 69 359 308 318 308 306 323 305 285 272 260 272 246 229 227 165 242 233 185 170 182 188 183
151 156 160 154 146 141 135 129 121 113 90 350 311 297 147 265 63 119 136 133 85 53 338 354 325 313 296 257 244 223 233 256 273 241 172 162 205 241 185 192 191 184 183
156 160 159 152 143 135 130 121 115 102 69 36 5 331 37 30 47 29 72 79 86 259 275 273 267 290 303 301 286 192 255 245 274 264 246 216 166 181 193 216 207 206 192
160 157 150 145 144 141 136 126 114 106 89 52 10 340 352 358 13 18 42 26 292 252 281 276 277 279 290 294 293 313 286 267 271 286 280 279 236 221 189 202 204 214 206
154 148 143 143 149 145 140 130 123 114 110 90 41 12 353 358 351 344 347 326 298 269 275 267 281 281 269 273 260 257 247 252 260 273 277 275 285 282 250 215 203 197 205
150 149 148 146 149 142 132 127 126 130 134 126 81 38 351 340 340 331 331 323 331 335 354 343 318 301 282 265 255 247 248 246 251 253 260 278 271 259 268 215 231 185 186
145 146 145 146 148 143 132 125 129 137 140 127 94 64 6 344 347 348 340 346 338 343 5 352 327 318 312 303 295 277 260 255 255 257 252 266 271 277 267 226 214 254 231
146 147 149 155 153 143 132 128 127 130 137 131 124 102 46 10 347 346 335 336 345 346 359 352 345 328 314 319 307 288 278 276 260 258 247 253 259 259 277 275 222 226 255
145 146 155 154 144 141 133 127 128 137 142 135 172 109 73 10 340 347 358 356 351 348 337 343 344 339 320 301 287 286 287 276 281 263 262 274 280 269 265 252 241 236 244
154 149 153 146 141 141 138 138 137 145 146 138 123 78 83 4 333 338 348 344 336 335 328 339 336 326 319 321 313 301 311 294 294 294 261 254 279 292 291 289 262 250 233
138 138 140 136 141 141 142 143 144 153 157 154 140 133 95 33 339 342 334 336 333 324 319 328 322 311 320 324 321 311 311 297 281 276 268 259 255 265 284 289 280 277 254
125 129 129 128 127 128 125 135 149 156 158 152 154 133 61 3 336 325 319 324 316 308 303 294 285 293 299 303 303 302 301 293 278 267 258 252 242 243 259 262 270 263 260
111 112 125 121 115 108 107 120 150 148 139 139 153 148 183 277 296 300 308 311 301 289 293 291 280 274 277 286 293 294 292 293 287 273 260 252 238 243 251 245 246 253 260
117 104 106 117 119 119 120 117 127 99 104 134 168 169 198 252 295 306 308 315 309 301 300 295 288 282 271 291 317 302 292 291 289 284 268 252 235 235 243 252 251 255 256
94 96 98 112 121 129 132 138 167 122 90 67 23 104 211 267 295 296 305 312 306 300 292 291 297 294 299 326 326 311 296 286 281 280 277 262 232 225 229 243 257 253 247
105 80 87 84 107 110 106 93 77 68 73 60 22 22 330 305 300 303 320 312 307 302 293 288 287 287 291 297 296 297 290 278 273 273 269 272 269 242 240 241 246 248 246
75 77 80 75 96 98 86 58 59 65 52 19 356 5 334 304 293 293 292 290 291 288 284 281 284 281 279 279 273 282 273 279 273 270 265 263 262 262 263 263 255 251 251
74 63 76 72 61 71 73 70 38 34 30 17 359 336 298 294 298 299 297 288 283 283 280 281 280 281 276 251 262 273 274 277 280 273 274 272 259 259 253 260 266 264 260
78 65 76 75 69 53 44 55 39 8 355 339 319 303 291 291 294 300 296 293 283 283 285 283 277 275 271 239 245 258 273 281 280 271 263 255 251 245 242 250 263 265 266
73 67 69 69 70 61 54 41 20 1 356 344 336 326 314 292 281 283 286 288 284 285 284 286 280 265 253 229 228 234 263 286 287 281 273 265 256 253 248 246 253 257 266
80 69 71 72 78 72 62 46 14 357 350 338 327 320 305 295 301 293 281 280 281 279 279 281 286 281 263 236 242 243 251 278 290 290 291 285 257 270 267 259 263 269 277
79 74 69 70 80 75 57 35 8 346 337 335 325 314 301 286 291 290 288 287 290 293 295 293 292 294 310 308 286 268 265 270 277 291 298 293 271 271 267 258 261 262 257
80 78 76 59 55 67 54 31 4 341 333 325 316 308 299 293 305 295 304 311 313 309 304 305 306 312 322 333 326 302 286 280 281 290 290 277 258 257 270 276 254 241 247
85 69 65 59 34 31 38 14 5 344 328 313 305 300 295 296 292 292 324 313 330 314 299 316 316 314 316 316 302 289 287 291 294 302 290 285 279 264 259 261 259 245 238
106 100 82 56 20 10 6 0 349 337 320 308 308 306 300 293 290 291 309 337 314 317 324 311 310 320 311 302 306 308 304 298 296 295 286 291 293 292 290 291 286 274 267